TimeEST,TemperatureF,Dew PointF,Humidity,Sea Level PressureIn,VisibilityMPH,Wind Direction,Wind SpeedMPH,Gust SpeedMPH,PrecipitationIn,Events,Conditions,WindDirDegrees,DateUTC
12:53 AM,64.0,60.1,87,29.99,10.0,East,5.8,-,0.00,Rain,Light Rain,100,2013-02-15 05:53:00
1:53 AM,66.0,59.0,78,29.98,10.0,Calm,Calm,-,0.00,Rain,Light Rain,0,2013-02-15 06:53:00
2:53 AM,63.0,60.1,90,29.98,5.0,Calm,Calm,-,0.04,Rain,Light Rain,0,2013-02-15 07:53:00
3:53 AM,63.0,60.1,90,29.97,10.0,Calm,Calm,-,0.01,Rain,Light Rain,0,2013-02-15 08:53:00
4:29 AM,62.6,60.8,94,29.98,10.0,WNW,4.6,-,0.01,Rain,Light Rain,300,2013-02-15 09:29:00
4:53 AM,62.1,60.1,93,29.98,10.0,Calm,Calm,-,0.01,Rain,Light Rain,0,2013-02-15 09:53:00
5:02 AM,62.6,60.8,94,29.98,10.0,West,3.5,-,0.00,Rain,Light Rain,260,2013-02-15 10:02:00
5:10 AM,62.6,60.8,94,29.99,10.0,WNW,3.5,-,0.00,Rain,Light Rain,300,2013-02-15 10:10:00
5:25 AM,62.6,60.8,94,30.00,10.0,NW,8.1,-,0.00,Rain,Light Rain,310,2013-02-15 10:25:00
5:41 AM,62.6,60.8,94,30.01,10.0,NW,8.1,-,0.00,Rain,Light Rain,320,2013-02-15 10:41:00
5:53 AM,62.1,60.1,93,30.01,10.0,NNW,6.9,-,0.00,Rain,Light Rain,330,2013-02-15 10:53:00
6:06 AM,62.6,60.8,94,30.00,10.0,NNW,6.9,-,0.00,Rain,Light Rain,340,2013-02-15 11:06:00
6:53 AM,61.0,60.1,97,30.00,10.0,Calm,Calm,-,0.00,Rain,Light Rain,0,2013-02-15 11:53:00
7:17 AM,60.8,60.8,100,30.00,10.0,Calm,Calm,-,0.00,Rain,Light Rain,0,2013-02-15 12:17:00
7:53 AM,61.0,59.0,93,30.02,7.0,NW,6.9,-,0.04,Rain,Light Rain,310,2013-02-15 12:53:00
8:23 AM,60.8,59.0,94,30.03,9.0,Variable,4.6,-,0.00,,Overcast,0,2013-02-15 13:23:00
8:32 AM,60.8,59.0,94,30.04,10.0,West,6.9,-,0.00,,Overcast,270,2013-02-15 13:32:00
8:53 AM,62.1,60.1,93,30.04,10.0,NW,5.8,-,0.00,,Mostly Cloudy,310,2013-02-15 13:53:00
9:04 AM,62.6,60.8,94,30.05,10.0,NW,5.8,-,N/A,,Overcast,310,2013-02-15 14:04:00
9:53 AM,63.0,60.1,90,30.06,10.0,NW,6.9,-,0.00,,Mostly Cloudy,310,2013-02-15 14:53:00
10:53 AM,62.1,59.0,90,30.06,9.0,NW,4.6,-,N/A,,Mostly Cloudy,320,2013-02-15 15:53:00
11:53 AM,63.0,59.0,87,30.06,10.0,NW,5.8,-,0.00,Rain,Light Rain,310,2013-02-15 16:53:00
12:41 PM,62.6,59.0,88,30.04,7.0,NW,5.8,-,0.02,Rain,Light Rain,320,2013-02-15 17:41:00
12:53 PM,62.1,59.0,90,30.04,7.0,NW,8.1,-,0.02,Rain,Light Rain,320,2013-02-15 17:53:00
1:29 PM,62.6,59.0,88,30.02,7.0,NW,8.1,-,0.01,Rain,Light Rain,310,2013-02-15 18:29:00
1:53 PM,62.1,59.0,90,30.01,7.0,NW,6.9,-,0.01,Rain,Light Rain,320,2013-02-15 18:53:00
2:34 PM,62.6,60.8,94,30.00,10.0,NW,5.8,-,0.00,Rain,Light Rain,320,2013-02-15 19:34:00
2:53 PM,63.0,60.1,90,29.97,10.0,Calm,Calm,-,0.00,,Mostly Cloudy,0,2013-02-15 19:53:00
3:53 PM,64.0,60.1,87,29.99,10.0,NNW,5.8,-,0.01,,Scattered Clouds,330,2013-02-15 20:53:00
4:53 PM,64.0,60.1,87,29.98,10.0,Calm,Calm,-,0.00,Rain,Light Rain,0,2013-02-15 21:53:00
5:53 PM,64.0,60.1,87,29.98,10.0,Calm,Calm,-,0.00,,Clear,0,2013-02-15 22:53:00
6:53 PM,62.1,59.0,90,29.98,7.0,Calm,Calm,-,N/A,,Clear,0,2013-02-15 23:53:00
7:51 PM,60.8,57.2,88,29.97,6.0,Calm,Calm,-,N/A,,Partly Cloudy,0,2013-02-16 00:51:00
7:53 PM,60.1,57.9,93,29.98,6.0,Calm,Calm,-,N/A,,Partly Cloudy,0,2013-02-16 00:53:00
8:36 PM,57.2,57.2,100,29.97,0.8,Calm,Calm,-,0.01,,Mostly Cloudy,0,2013-02-16 01:36:00
8:51 PM,57.2,55.4,94,29.98,0.5,Calm,Calm,-,0.01,Fog,Fog,0,2013-02-16 01:51:00
8:53 PM,57.0,55.9,96,29.98,0.5,Calm,Calm,-,0.01,Fog,Fog,0,2013-02-16 01:53:00
9:36 PM,57.2,55.4,94,29.99,0.5,Calm,Calm,-,N/A,Fog,Fog,0,2013-02-16 02:36:00
9:41 PM,57.2,55.4,94,29.99,1.0,Calm,Calm,-,N/A,,Mostly Cloudy,0,2013-02-16 02:41:00
9:47 PM,57.2,55.4,94,29.99,0.5,NW,3.5,-,N/A,Fog,Fog,310,2013-02-16 02:47:00
9:48 PM,57.0,55.9,96,29.99,0.5,NW,3.5,-,N/A,Fog,Fog,310,2013-02-16 02:48:00
9:56 PM,57.2,55.4,94,29.99,1.0,NW,3.5,-,N/A,,Overcast,310,2013-02-16 02:56:00
10:03 PM,57.2,57.2,100,29.99,3.0,Calm,Calm,-,N/A,,Overcast,0,2013-02-16 03:03:00
10:53 PM,59.0,57.9,96,29.98,5.0,WNW,3.5,-,N/A,,Overcast,300,2013-02-16 03:53:00
11:53 PM,60.1,59.0,96,29.97,5.0,Calm,Calm,-,N/A,,Overcast,0,2013-02-16 04:53:00